STARLINK-1185, 45087

Orbit data source: Space-Track

STARLINK-1185, 45087 is a payload satellite owned by SpaceX/Seattle (US) in LEO that was launched on Wed, 29 Jan 2020 UTC via an FALCON 9 launch vehicle from the Air Force Eastern Test Range (AFETR). Payload-class satellites include a variety of spacecraft equipped with specific instruments for various scientific and technological missions. These include communications satellites like Starlink; space stations such as the ISS; scientific satellites like the Hubble; Earth observation satellites from companies like Planet Labs, Umbra, and HawkEye 360; GPS; miniature CubeSats for education and research; and military/defense satellites.

Loading next visibility...
Identifier
45087, 2020-006AV
Orbit
LEO
Country
Flag of USUS
Related business
Manufacturer
SpaceX/Seattle
Mission
Operational Commercial Communications
Bus & Motor
STARLINK, Unknown motor
Mass
260 kg wet, ~248 kg dry
Launch date (UTC)
2020-01-29 (6 years ago)
Launch vehicle
FALCON 9
Launch site
Air Force Eastern Test Range (AFETR)
Object type
Payload
Rocket body
Debris
Shape & HBR
Box + 1 Pan, 10.1 m
Radar Cross Section
13.562 m², Large (>1 m²)

Expand to show TLE details & history
Last TLE update: 1 day ago

TLE from 1 day ago
0 STARLINK-1185
1 45087U 20006AV  25312.72689164  .00000665  00000-0  63508-4 0  9991
2 45087  53.0553  69.6377 0001196  82.0067 278.1058 15.06400317318791
Epoch: 2025-11-08T17:26Z
TLE epoch observation values (Epoch: 2025-11-08T17:26:43.437Z)
Latitude
-0.00001°
Longitude
119.80435°
Altitude
547.973 km
Speed
7.589 km/s
True Right ascension
04h 38m 33s
True Declination
0° 00' 00"
Sunlit
Object was in full shadow at epoch
Visualization orbit readout
Latitude
Unknown
Longitude
Unknown
Altitude
Unknown
Speed
Unknown
Apparent Right ascension
Unknown
Apparent Declination
Unknown
Sunlit
N/A
Visualization observer readout
Local Sidereal Time
18:48:49
Azimuth
Unknown
Elevation
Unknown
Doppler factor
Unknown
Orbital elements
Apogee altitude
548.309 km
Perigee altitude
546.653 km
Semi-major axis
6,925.618 km
Eccentricity
0.00012
Inclination
53.0553°
RAAN
69.6377°
Arg. of periapsis
82.0067°
True anomaly
278.09223°
Mean anomaly
278.1058°
Eccentric anomaly
278.09902°
Mean motion
3.76578 °/min
Orbital period
95.6 mins
BSTAR
0.000063508
Loading maneuver chart data...
Computing Atmospheric mass density...
Loading historical data...
Loading historical data...
Loading historical data...
Loading historical data...
Loading historical data...
Loading historical data...
Loading historical data...

Documentation

Showing up to 5 results
|